,,,PA_Meas_PMT16A,,PR_Meas_QMR101_102,,RH_Meas_QMH101,,SR_Meas_QMS101,,TA_Meas_QMH101,,GenWind,,GenWind,
date,time,status,PA,status,PR,status,RH,status,SR,status,TA,status,DirAvg,status,SpdAvg,
2011-09-12, 00:00:04,VALID,1008.33,VALID,0.0,VALID,102.513,VALID,0.0,VALID,24.631,VALID,339.0,VALID,0.155,
2011-09-12, 00:01:04,VALID,1008.322,VALID,0.0,VALID,102.566,VALID,0.0,VALID,24.612,VALID,339.0,VALID,0.359,
2011-09-12, 00:02:04,VALID,1008.315,VALID,0.0,VALID,102.566,VALID,0.0,VALID,24.59,VALID,339.0,VALID,0.346,
2011-09-12, 00:03:04,VALID,1008.311,VALID,0.0,VALID,102.612,VALID,0.0,VALID,24.612,VALID,339.0,VALID,0.194,
2011-09-12, 00:04:04,VALID,1008.32,VALID,0.0,VALID,102.62,VALID,0.0,VALID,24.59,VALID,339.0,VALID,0.294,
2011-09-12, 00:05:04,VALID,1008.319,VALID,0.0,VALID,102.589,VALID,0.0,VALID,24.61,VALID,339.0,VALID,0.276,
2011-09-12, 00:06:04,VALID,1008.352,VALID,0.0,VALID,102.627,VALID,0.106,VALID,24.589,VALID,339.0,VALID,0.179,
2011-09-12, 00:07:04,VALID,1008.33,VALID,0.0,VALID,102.65,VALID,0.0,VALID,24.608,VALID,339.0,VALID,0.0,
2011-09-12, 00:08:04,VALID,1008.36,VALID,0.0,VALID,102.65,VALID,0.106,VALID,24.608,VALID,339.0,VALID,0.002,
2011-09-12, 00:09:04,VALID,1008.372,VALID,0.0,VALID,102.666,VALID,0.106,VALID,24.608,VALID,339.0,VALID,0.01,
2011-09-12, 00:10:04,VALID,1008.381,VALID,0.0,VALID,102.681,VALID,0.106,VALID,24.629,VALID,339.0,VALID,0.111,
2011-09-12, 00:11:04,VALID,1008.348,VALID,0.0,VALID,102.742,VALID,0.106,VALID,24.649,VALID,339.0,VALID,0.002,
2011-09-12, 00:12:04,VALID,1008.335,VALID,0.0,VALID,102.612,VALID,0.0,VALID,24.628,VALID,339.0,VALID,0.33,
2011-09-12, 00:13:04,VALID,1008.347,VALID,0.0,VALID,102.49,VALID,0.0,VALID,24.628,VALID,339.0,VALID,0.389,
2011-09-12, 00:14:04,VALID,1008.321,VALID,0.0,VALID,102.406,VALID,0.0,VALID,24.668,VALID,339.0,VALID,0.529,
2011-09-12, 00:15:04,VALID,1008.326,VALID,0.0,VALID,102.429,VALID,0.106,VALID,24.667,VALID,338.0,VALID,0.284,
2011-09-12, 00:16:04,VALID,1008.347,VALID,0.0,VALID,102.475,VALID,0.0,VALID,24.686,VALID,338.0,VALID,0.144,
2011-09-12, 00:17:04,VALID,1008.35,VALID,0.0,VALID,102.505,VALID,0.0,VALID,24.707,VALID,331.0,VALID,0.439,
2011-09-12, 00:18:04,VALID,1008.352,VALID,0.0,VALID,102.597,VALID,0.0,VALID,24.706,VALID,331.0,VALID,0.294,
2011-09-12, 00:19:04,VALID,1008.354,VALID,0.0,VALID,102.589,VALID,0.106,VALID,24.746,VALID,331.0,VALID,0.176,
2011-09-12, 00:20:04,VALID,1008.35,VALID,0.0,VALID,102.437,VALID,0.0,VALID,24.766,VALID,331.0,VALID,0.489,
2011-09-12, 00:21:04,VALID,1008.36,VALID,0.0,VALID,102.223,VALID,0.0,VALID,24.766,VALID,333.0,VALID,0.511,
2011-09-12, 00:22:04,VALID,1008.332,VALID,0.0,VALID,102.063,VALID,0.0,VALID,24.785,VALID,333.0,VALID,0.269,
2011-09-12, 00:23:04,VALID,1008.328,VALID,0.0,VALID,102.109,VALID,0.0,VALID,24.783,VALID,333.0,VALID,0.146,
2011-09-12, 00:24:04,VALID,1008.344,VALID,0.0,VALID,102.124,VALID,0.106,VALID,24.844,VALID,333.0,VALID,0.229,
2011-09-12, 00:25:04,VALID,1008.331,VALID,0.0,VALID,101.964,VALID,0.0,VALID,24.803,VALID,333.0,VALID,0.135,
2011-09-12, 00:26:04,VALID,1008.309,VALID,0.0,VALID,101.956,VALID,0.0,VALID,24.824,VALID,333.0,VALID,0.308,
2011-09-12, 00:27:04,VALID,1008.314,VALID,0.0,VALID,101.895,VALID,0.0,VALID,24.803,VALID,333.0,VALID,0.367,
2011-09-12, 00:28:04,VALID,1008.311,VALID,0.0,VALID,101.888,VALID,0.0,VALID,24.803,VALID,333.0,VALID,0.477,
2011-09-12, 00:29:04,VALID,1008.318,VALID,0.0,VALID,101.796,VALID,0.0,VALID,24.783,VALID,20.0,VALID,0.475,
2011-09-12, 00:30:04,VALID,1008.297,VALID,0.0,VALID,101.789,VALID,0.0,VALID,24.803,VALID,20.0,VALID,0.443,
2011-09-12, 00:31:04,VALID,1008.315,VALID,0.0,VALID,101.819,VALID,0.106,VALID,24.822,VALID,20.0,VALID,0.297,
2011-09-12, 00:32:04,VALID,1008.312,VALID,0.0,VALID,101.827,VALID,0.0,VALID,24.824,VALID,20.0,VALID,0.399,
2011-09-12, 00:33:04,VALID,1008.341,VALID,0.0,VALID,101.811,VALID,0.106,VALID,24.824,VALID,20.0,VALID,0.354,
2011-09-12, 00:34:04,VALID,1008.378,VALID,0.0,VALID,101.781,VALID,0.0,VALID,24.805,VALID,20.0,VALID,0.437,
2011-09-12, 00:35:04,VALID,1008.395,VALID,0.0,VALID,101.758,VALID,0.106,VALID,24.824,VALID,20.0,VALID,0.43,
2011-09-12, 00:36:04,VALID,1008.429,VALID,0.0,VALID,101.88,VALID,0.106,VALID,24.803,VALID,22.0,VALID,0.423,
2011-09-12, 00:37:04,VALID,1008.425,VALID,0.0,VALID,102.01,VALID,0.106,VALID,24.822,VALID,47.0,VALID,0.606,
2011-09-12, 00:38:04,VALID,1008.435,VALID,0.0,VALID,102.033,VALID,0.0,VALID,24.824,VALID,47.0,VALID,0.57,
2011-09-12, 00:39:04,VALID,1008.455,VALID,0.0,VALID,102.116,VALID,0.106,VALID,24.844,VALID,47.0,VALID,0.301,
2011-09-12, 00:40:04,VALID,1008.464,VALID,0.0,VALID,102.025,VALID,0.106,VALID,24.822,VALID,47.0,VALID,0.266,
2011-09-12, 00:41:04,VALID,1008.465,VALID,0.0,VALID,102.04,VALID,0.106,VALID,24.844,VALID,47.0,VALID,0.006,
2011-09-12, 00:42:04,VALID,1008.487,VALID,0.0,VALID,102.055,VALID,0.106,VALID,24.822,VALID,47.0,VALID,0.254,
2011-09-12, 00:43:04,VALID,1008.485,VALID,0.0,VALID,101.964,VALID,0.106,VALID,24.844,VALID,47.0,VALID,0.23,
2011-09-12, 00:44:04,VALID,1008.484,VALID,0.0,VALID,102.01,VALID,0.106,VALID,24.822,VALID,47.0,VALID,0.237,
2011-09-12, 00:45:04,VALID,1008.525,VALID,0.0,VALID,102.01,VALID,0.106,VALID,24.822,VALID,47.0,VALID,0.29,
2011-09-12, 00:46:04,VALID,1008.498,VALID,0.0,VALID,101.979,VALID,0.106,VALID,24.842,VALID,47.0,VALID,0.274,
2011-09-12, 00:47:04,VALID,1008.501,VALID,0.0,VALID,101.956,VALID,0.0,VALID,24.822,VALID,47.0,VALID,0.292,
2011-09-12, 00:48:04,VALID,1008.5,VALID,0.0,VALID,102.094,VALID,0.106,VALID,24.803,VALID,47.0,VALID,0.244,
2011-09-12, 00:49:04,VALID,1008.451,VALID,0.0,VALID,102.36,VALID,0.106,VALID,24.803,VALID,47.0,VALID,0.003,
2011-09-12, 00:50:04,VALID,1008.464,VALID,0.0,VALID,102.582,VALID,0.0,VALID,24.805,VALID,47.0,VALID,0.191,
2011-09-12, 00:51:04,VALID,1008.424,VALID,0.0,VALID,102.566,VALID,0.0,VALID,24.805,VALID,47.0,VALID,0.0,
2011-09-12, 00:52:04,VALID,1008.42,VALID,0.0,VALID,102.597,VALID,0.0,VALID,24.785,VALID,47.0,VALID,0.0,
2011-09-12, 00:53:04,VALID,1008.408,VALID,0.0,VALID,102.597,VALID,0.0,VALID,24.766,VALID,47.0,VALID,0.0,
2011-09-12, 00:54:04,VALID,1008.397,VALID,0.0,VALID,102.612,VALID,0.0,VALID,24.768,VALID,47.0,VALID,0.0,
2011-09-12, 00:55:04,VALID,1008.335,VALID,0.0,VALID,102.673,VALID,0.0,VALID,24.746,VALID,43.0,VALID,0.105,
2011-09-12, 00:56:04,VALID,1008.337,VALID,0.0,VALID,102.605,VALID,0.0,VALID,24.768,VALID,43.0,VALID,0.037,
2011-09-12, 00:57:04,VALID,1008.293,VALID,0.0,VALID,102.582,VALID,0.0,VALID,24.746,VALID,43.0,VALID,0.0,
2011-09-12, 00:58:04,VALID,1008.255,VALID,0.0,VALID,102.589,VALID,0.0,VALID,24.746,VALID,43.0,VALID,0.418,
2011-09-12, 00:59:04,VALID,1008.212,VALID,0.0,VALID,102.551,VALID,0.0,VALID,24.748,VALID,43.0,VALID,0.23,
2011-09-12, 01:00:04,VALID,1008.149,VALID,0.0,VALID,102.62,VALID,0.0,VALID,24.727,VALID,43.0,VALID,0.274,
2011-09-12, 01:01:04,VALID,1008.138,VALID,0.0,VALID,102.788,VALID,0.0,VALID,24.787,VALID,43.0,VALID,0.142,
2011-09-12, 01:02:04,VALID,1008.146,VALID,0.0,VALID,102.719,VALID,0.0,VALID,24.746,VALID,43.0,VALID,0.201,
2011-09-12, 01:03:04,VALID,1008.147,VALID,0.0,VALID,102.65,VALID,0.0,VALID,24.729,VALID,43.0,VALID,0.0,
2011-09-12, 01:04:04,VALID,1008.119,VALID,0.0,VALID,102.681,VALID,0.0,VALID,24.729,VALID,43.0,VALID,0.268,
2011-09-12, 01:05:04,VALID,1008.088,VALID,0.0,VALID,102.696,VALID,0.0,VALID,24.725,VALID,43.0,VALID,0.373,
2011-09-12, 01:06:04,VALID,1008.076,VALID,0.0,VALID,102.65,VALID,0.0,VALID,24.725,VALID,43.0,VALID,0.271,
2011-09-12, 01:07:04,VALID,1008.077,VALID,0.0,VALID,102.635,VALID,0.0,VALID,24.746,VALID,43.0,VALID,0.099,
2011-09-12, 01:08:04,VALID,1008.059,VALID,0.0,VALID,102.605,VALID,0.106,VALID,24.745,VALID,43.0,VALID,0.049,
2011-09-12, 01:09:04,VALID,1008.032,VALID,0.0,VALID,102.574,VALID,0.0,VALID,24.766,VALID,43.0,VALID,0.0,
2011-09-12, 01:10:04,VALID,1008.034,VALID,0.0,VALID,102.582,VALID,0.0,VALID,24.766,VALID,43.0,VALID,0.146,
2011-09-12, 01:11:04,VALID,1008.021,VALID,0.0,VALID,102.551,VALID,0.0,VALID,24.766,VALID,43.0,VALID,0.0,
2011-09-12, 01:12:04,VALID,1008.028,VALID,0.0,VALID,102.475,VALID,0.0,VALID,24.746,VALID,43.0,VALID,0.105,
2011-09-12, 01:13:04,VALID,1008.0,VALID,0.0,VALID,102.376,VALID,0.106,VALID,24.746,VALID,43.0,VALID,0.152,
2011-09-12, 01:14:04,VALID,1008.05,VALID,0.0,VALID,102.33,VALID,0.0,VALID,24.766,VALID,43.0,VALID,0.133,
2011-09-12, 01:15:04,VALID,1008.033,VALID,0.0,VALID,102.277,VALID,0.0,VALID,24.766,VALID,43.0,VALID,0.166,
2011-09-12, 01:16:04,VALID,1008.031,VALID,0.0,VALID,102.269,VALID,0.0,VALID,24.766,VALID,42.0,VALID,0.4,
2011-09-12, 01:17:04,VALID,1007.987,VALID,0.0,VALID,102.345,VALID,0.0,VALID,24.764,VALID,43.0,VALID,0.452,
2011-09-12, 01:18:04,VALID,1007.972,VALID,0.0,VALID,102.475,VALID,0.0,VALID,24.766,VALID,43.0,VALID,0.643,
2011-09-12, 01:19:04,VALID,1007.974,VALID,0.0,VALID,102.559,VALID,0.0,VALID,24.746,VALID,42.0,VALID,0.659,
2011-09-12, 01:20:04,VALID,1007.973,VALID,0.0,VALID,102.627,VALID,0.0,VALID,24.746,VALID,42.0,VALID,0.437,
2011-09-12, 01:21:04,VALID,1007.946,VALID,0.0,VALID,102.711,VALID,0.0,VALID,24.706,VALID,43.0,VALID,0.268,
2011-09-12, 01:22:04,VALID,1007.938,VALID,0.0,VALID,102.696,VALID,0.0,VALID,24.688,VALID,43.0,VALID,0.158,
2011-09-12, 01:23:04,VALID,1007.914,VALID,0.0,VALID,102.734,VALID,0.0,VALID,24.649,VALID,43.0,VALID,0.118,
2011-09-12, 01:24:04,VALID,1007.886,VALID,0.0,VALID,102.788,VALID,0.0,VALID,24.649,VALID,43.0,VALID,0.0,
2011-09-12, 01:25:04,VALID,1007.867,VALID,0.0,VALID,102.81,VALID,0.0,VALID,24.649,VALID,42.0,VALID,0.0,
2011-09-12, 01:26:04,VALID,1007.837,VALID,0.0,VALID,102.887,VALID,0.0,VALID,24.629,VALID,42.0,VALID,0.0,
2011-09-12, 01:27:04,VALID,1007.84,VALID,0.0,VALID,102.925,VALID,0.0,VALID,24.629,VALID,42.0,VALID,0.0,
2011-09-12, 01:28:04,VALID,1007.807,VALID,0.0,VALID,103.001,VALID,0.0,VALID,24.629,VALID,42.0,VALID,0.0,
2011-09-12, 01:29:04,VALID,1007.806,VALID,0.0,VALID,103.039,VALID,0.106,VALID,24.61,VALID,43.0,VALID,0.0,
2011-09-12, 01:30:04,VALID,1007.841,VALID,0.0,VALID,103.123,VALID,0.0,VALID,24.61,VALID,42.0,VALID,0.0,
2011-09-12, 01:31:04,VALID,1007.853,VALID,0.0,VALID,103.184,VALID,0.0,VALID,24.589,VALID,42.0,VALID,0.228,
2011-09-12, 01:32:04,VALID,1007.88,VALID,0.0,VALID,103.222,VALID,0.0,VALID,24.61,VALID,42.0,VALID,0.291,
2011-09-12, 01:33:04,VALID,1007.882,VALID,0.0,VALID,103.199,VALID,0.0,VALID,24.589,VALID,43.0,VALID,0.585,
2011-09-12, 01:34:04,VALID,1007.913,VALID,0.0,VALID,103.207,VALID,0.0,VALID,24.629,VALID,42.0,VALID,0.63,
2011-09-12, 01:35:04,VALID,1007.913,VALID,0.0,VALID,103.161,VALID,0.0,VALID,24.61,VALID,43.0,VALID,0.478,
2011-09-12, 01:36:04,VALID,1007.89,VALID,0.0,VALID,103.154,VALID,0.0,VALID,24.61,VALID,43.0,VALID,0.391,
2011-09-12, 01:37:04,VALID,1007.891,VALID,0.0,VALID,103.176,VALID,0.0,VALID,24.61,VALID,43.0,VALID,0.335,
2011-09-12, 01:38:04,VALID,1007.892,VALID,0.0,VALID,103.237,VALID,0.0,VALID,24.61,VALID,97.0,VALID,0.782,
2011-09-12, 01:39:04,VALID,1007.867,VALID,0.0,VALID,103.306,VALID,0.0,VALID,24.61,VALID,99.0,VALID,0.669,
2011-09-12, 01:40:04,VALID,1007.856,VALID,0.0,VALID,103.306,VALID,0.106,VALID,24.629,VALID,98.0,VALID,0.745,
2011-09-12, 01:41:04,VALID,1007.826,VALID,0.0,VALID,103.268,VALID,0.0,VALID,24.608,VALID,96.0,VALID,0.45,
2011-09-12, 01:42:04,VALID,1007.793,VALID,0.0,VALID,103.26,VALID,0.0,VALID,24.629,VALID,96.0,VALID,0.121,
2011-09-12, 01:43:04,VALID,1007.799,VALID,0.0,VALID,103.215,VALID,0.0,VALID,24.629,VALID,96.0,VALID,0.159,
2011-09-12, 01:44:04,VALID,1007.792,VALID,0.0,VALID,103.23,VALID,0.0,VALID,24.61,VALID,96.0,VALID,0.106,
2011-09-12, 01:45:04,VALID,1007.78,VALID,0.0,VALID,103.253,VALID,0.0,VALID,24.61,VALID,96.0,VALID,0.321,
2011-09-12, 01:46:04,VALID,1007.811,VALID,0.0,VALID,103.276,VALID,0.0,VALID,24.569,VALID,96.0,VALID,0.303,
2011-09-12, 01:47:04,VALID,1007.833,VALID,0.0,VALID,103.298,VALID,0.0,VALID,24.569,VALID,96.0,VALID,0.413,
2011-09-12, 01:48:04,VALID,1007.823,VALID,0.0,VALID,103.344,VALID,0.0,VALID,24.569,VALID,89.0,VALID,0.572,
2011-09-12, 01:49:04,VALID,1007.824,VALID,0.0,VALID,103.39,VALID,0.0,VALID,24.61,VALID,87.0,VALID,0.62,
2011-09-12, 01:50:04,VALID,1007.806,VALID,0.0,VALID,103.405,VALID,0.0,VALID,24.59,VALID,81.0,VALID,0.527,
2011-09-12, 01:51:04,VALID,1007.817,VALID,0.0,VALID,103.382,VALID,0.0,VALID,24.571,VALID,52.0,VALID,0.765,
2011-09-12, 01:52:04,VALID,1007.826,VALID,0.0,VALID,103.298,VALID,0.0,VALID,24.55,VALID,52.0,VALID,0.509,
2011-09-12, 01:53:04,VALID,1007.813,VALID,0.0,VALID,103.26,VALID,0.106,VALID,24.571,VALID,52.0,VALID,0.548,
2011-09-12, 01:54:04,VALID,1007.801,VALID,0.0,VALID,103.26,VALID,0.0,VALID,24.53,VALID,52.0,VALID,0.557,
2011-09-12, 01:55:04,VALID,1007.811,VALID,0.0,VALID,103.283,VALID,0.0,VALID,24.532,VALID,35.0,VALID,0.276,
2011-09-12, 01:56:04,VALID,1007.803,VALID,0.0,VALID,103.329,VALID,0.0,VALID,24.512,VALID,35.0,VALID,0.206,
2011-09-12, 01:57:04,VALID,1007.792,VALID,0.0,VALID,103.42,VALID,0.0,VALID,24.512,VALID,35.0,VALID,0.084,
2011-09-12, 01:58:04,VALID,1007.821,VALID,0.0,VALID,103.466,VALID,0.106,VALID,24.472,VALID,35.0,VALID,0.0,
2011-09-12, 01:59:04,VALID,1007.814,VALID,0.0,VALID,103.55,VALID,0.0,VALID,24.474,VALID,35.0,VALID,0.304,
2011-09-12, 02:00:04,VALID,1007.836,VALID,0.0,VALID,103.611,VALID,0.0,VALID,24.433,VALID,35.0,VALID,0.16,
2011-09-12, 02:01:04,VALID,1007.811,VALID,0.0,VALID,103.664,VALID,0.0,VALID,24.435,VALID,35.0,VALID,0.154,
2011-09-12, 02:02:04,VALID,1007.831,VALID,0.0,VALID,103.71,VALID,0.0,VALID,24.396,VALID,35.0,VALID,0.0,
2011-09-12, 02:03:04,VALID,1007.815,VALID,0.0,VALID,103.771,VALID,0.0,VALID,24.374,VALID,35.0,VALID,0.009,
2011-09-12, 02:04:04,VALID,1007.834,VALID,0.0,VALID,103.832,VALID,0.0,VALID,24.376,VALID,35.0,VALID,0.202,
2011-09-12, 02:05:04,VALID,1007.795,VALID,0.0,VALID,103.893,VALID,0.0,VALID,24.357,VALID,35.0,VALID,0.253,
2011-09-12, 02:06:04,VALID,1007.763,VALID,0.0,VALID,103.97,VALID,0.0,VALID,24.337,VALID,35.0,VALID,0.199,
2011-09-12, 02:07:04,VALID,1007.754,VALID,0.0,VALID,104.0,VALID,0.0,VALID,24.357,VALID,35.0,VALID,0.045,
2011-09-12, 02:08:04,VALID,1007.766,VALID,0.0,VALID,104.0,VALID,0.0,VALID,24.318,VALID,35.0,VALID,0.0,
2011-09-12, 02:09:04,VALID,1007.77,VALID,0.0,VALID,104.0,VALID,0.0,VALID,24.318,VALID,35.0,VALID,0.0,
2011-09-12, 02:10:04,VALID,1007.768,VALID,0.0,VALID,104.0,VALID,0.0,VALID,24.319,VALID,35.0,VALID,0.0,
2011-09-12, 02:11:04,VALID,1007.772,VALID,0.0,VALID,104.0,VALID,0.106,VALID,24.298,VALID,35.0,VALID,0.136,
2011-09-12, 02:12:04,VALID,1007.75,VALID,0.0,VALID,104.0,VALID,0.0,VALID,24.298,VALID,35.0,VALID,0.145,
2011-09-12, 02:13:04,VALID,1007.733,VALID,0.0,VALID,104.0,VALID,0.106,VALID,24.298,VALID,35.0,VALID,0.057,
2011-09-12, 02:14:04,VALID,1007.704,VALID,0.0,VALID,104.0,VALID,0.0,VALID,24.298,VALID,35.0,VALID,0.409,
2011-09-12, 02:15:04,VALID,1007.693,VALID,0.0,VALID,104.0,VALID,0.0,VALID,24.298,VALID,35.0,VALID,0.236,
2011-09-12, 02:16:04,VALID,1007.694,VALID,0.0,VALID,104.0,VALID,0.106,VALID,24.298,VALID,35.0,VALID,0.359,
2011-09-12, 02:17:04,VALID,1007.706,VALID,0.0,VALID,104.0,VALID,0.106,VALID,24.257,VALID,35.0,VALID,0.268,
2011-09-12, 02:18:04,VALID,1007.68,VALID,0.0,VALID,104.0,VALID,0.0,VALID,24.279,VALID,35.0,VALID,0.181,
2011-09-12, 02:19:04,VALID,1007.666,VALID,0.0,VALID,104.0,VALID,0.106,VALID,24.238,VALID,35.0,VALID,0.0,
2011-09-12, 02:20:04,VALID,1007.657,VALID,0.0,VALID,104.0,VALID,0.0,VALID,24.24,VALID,35.0,VALID,0.0,
2011-09-12, 02:21:04,VALID,1007.626,VALID,0.0,VALID,104.0,VALID,0.0,VALID,24.24,VALID,35.0,VALID,0.0,
2011-09-12, 02:22:04,VALID,1007.619,VALID,0.0,VALID,104.0,VALID,0.0,VALID,24.259,VALID,35.0,VALID,0.0,
2011-09-12, 02:23:04,VALID,1007.578,VALID,0.0,VALID,104.0,VALID,0.0,VALID,24.24,VALID,35.0,VALID,0.0,
2011-09-12, 02:24:04,VALID,1007.578,VALID,0.0,VALID,104.0,VALID,0.0,VALID,24.24,VALID,35.0,VALID,0.0,
2011-09-12, 02:25:04,VALID,1007.568,VALID,0.0,VALID,104.0,VALID,0.0,VALID,24.259,VALID,35.0,VALID,0.0,
2011-09-12, 02:26:04,VALID,1007.627,VALID,0.0,VALID,104.0,VALID,0.106,VALID,24.24,VALID,35.0,VALID,0.0,
2011-09-12, 02:27:04,VALID,1007.606,VALID,0.0,VALID,104.0,VALID,0.106,VALID,24.238,VALID,35.0,VALID,0.063,
2011-09-12, 02:28:04,VALID,1007.603,VALID,0.0,VALID,104.0,VALID,0.0,VALID,24.259,VALID,35.0,VALID,0.143,
2011-09-12, 02:29:04,VALID,1007.578,VALID,0.0,VALID,104.0,VALID,0.106,VALID,24.259,VALID,35.0,VALID,0.264,
2011-09-12, 02:30:04,VALID,1007.577,VALID,0.0,VALID,104.0,VALID,0.0,VALID,24.24,VALID,35.0,VALID,0.203,
2011-09-12, 02:31:04,VALID,1007.518,VALID,0.0,VALID,104.0,VALID,0.0,VALID,24.259,VALID,35.0,VALID,0.261,
2011-09-12, 02:32:04,VALID,1007.503,VALID,0.0,VALID,104.0,VALID,0.0,VALID,24.259,VALID,35.0,VALID,0.129,
2011-09-12, 02:33:04,VALID,1007.523,VALID,0.0,VALID,104.0,VALID,0.106,VALID,24.279,VALID,35.0,VALID,0.0,
2011-09-12, 02:34:04,VALID,1007.532,VALID,0.0,VALID,104.0,VALID,0.0,VALID,24.279,VALID,35.0,VALID,0.174,
2011-09-12, 02:35:04,VALID,1007.559,VALID,0.0,VALID,104.0,VALID,0.0,VALID,24.298,VALID,35.0,VALID,0.159,
2011-09-12, 02:36:04,VALID,1007.563,VALID,0.0,VALID,104.0,VALID,0.106,VALID,24.296,VALID,35.0,VALID,0.486,
2011-09-12, 02:37:04,VALID,1007.55,VALID,0.0,VALID,104.0,VALID,0.0,VALID,24.318,VALID,35.0,VALID,0.453,
2011-09-12, 02:38:04,VALID,1007.504,VALID,0.0,VALID,104.0,VALID,0.0,VALID,24.337,VALID,35.0,VALID,0.278,
2011-09-12, 02:39:04,VALID,1007.474,VALID,0.0,VALID,104.0,VALID,0.0,VALID,24.357,VALID,35.0,VALID,0.224,
2011-09-12, 02:40:04,VALID,1007.419,VALID,0.0,VALID,104.0,VALID,0.0,VALID,24.396,VALID,35.0,VALID,0.296,
2011-09-12, 02:41:04,VALID,1007.396,VALID,0.0,VALID,104.0,VALID,0.0,VALID,24.435,VALID,35.0,VALID,0.396,
2011-09-12, 02:42:04,VALID,1007.357,VALID,0.0,VALID,104.0,VALID,0.0,VALID,24.454,VALID,35.0,VALID,0.459,
2011-09-12, 02:43:04,VALID,1007.345,VALID,0.0,VALID,104.0,VALID,0.0,VALID,24.454,VALID,35.0,VALID,0.645,
2011-09-12, 02:44:04,VALID,1007.352,VALID,0.0,VALID,104.0,VALID,0.0,VALID,24.454,VALID,26.0,VALID,0.507,
2011-09-12, 02:45:04,VALID,1007.374,VALID,0.0,VALID,104.0,VALID,0.0,VALID,24.454,VALID,26.0,VALID,0.464,
2011-09-12, 02:46:04,VALID,1007.383,VALID,0.0,VALID,104.0,VALID,0.0,VALID,24.454,VALID,26.0,VALID,0.379,
2011-09-12, 02:47:04,VALID,1007.374,VALID,0.0,VALID,104.0,VALID,0.0,VALID,24.454,VALID,24.0,VALID,0.461,
2011-09-12, 02:48:04,VALID,1007.393,VALID,0.0,VALID,104.0,VALID,0.0,VALID,24.435,VALID,24.0,VALID,0.213,
2011-09-12, 02:49:04,VALID,1007.417,VALID,0.0,VALID,104.0,VALID,0.0,VALID,24.413,VALID,24.0,VALID,0.252,
2011-09-12, 02:50:04,VALID,1007.375,VALID,0.0,VALID,104.0,VALID,0.0,VALID,24.415,VALID,24.0,VALID,0.0,
2011-09-12, 02:51:04,VALID,1007.357,VALID,0.0,VALID,104.0,VALID,0.0,VALID,24.415,VALID,24.0,VALID,0.212,
2011-09-12, 02:52:04,VALID,1007.349,VALID,0.0,VALID,104.0,VALID,0.0,VALID,24.396,VALID,24.0,VALID,0.127,
2011-09-12, 02:53:04,VALID,1007.324,VALID,0.0,VALID,104.0,VALID,0.0,VALID,24.397,VALID,24.0,VALID,0.009,
2011-09-12, 02:54:04,VALID,1007.311,VALID,0.0,VALID,104.0,VALID,0.106,VALID,24.376,VALID,24.0,VALID,0.164,
2011-09-12, 02:55:04,VALID,1007.331,VALID,0.0,VALID,104.0,VALID,0.106,VALID,24.357,VALID,24.0,VALID,0.179,
2011-09-12, 02:56:04,VALID,1007.273,VALID,0.0,VALID,104.0,VALID,0.106,VALID,24.357,VALID,24.0,VALID,0.165,
2011-09-12, 02:57:04,VALID,1007.262,VALID,0.0,VALID,104.0,VALID,0.0,VALID,24.337,VALID,24.0,VALID,0.321,
2011-09-12, 02:58:04,VALID,1007.256,VALID,0.0,VALID,104.0,VALID,0.106,VALID,24.316,VALID,24.0,VALID,0.277,
2011-09-12, 02:59:04,VALID,1007.223,VALID,0.0,VALID,104.0,VALID,0.0,VALID,24.296,VALID,24.0,VALID,0.286,
2011-09-12, 03:00:04,VALID,1007.232,VALID,0.0,VALID,104.0,VALID,0.106,VALID,24.318,VALID,24.0,VALID,0.273,
2011-09-12, 03:01:04,VALID,1007.238,VALID,0.0,VALID,104.0,VALID,0.0,VALID,24.298,VALID,24.0,VALID,0.264,
2011-09-12, 03:02:04,VALID,1007.253,VALID,0.0,VALID,104.0,VALID,0.0,VALID,24.318,VALID,24.0,VALID,0.211,
2011-09-12, 03:03:04,VALID,1007.267,VALID,0.0,VALID,104.0,VALID,0.0,VALID,24.298,VALID,24.0,VALID,0.117,
2011-09-12, 03:04:04,VALID,1007.307,VALID,0.0,VALID,104.0,VALID,0.0,VALID,24.279,VALID,24.0,VALID,0.0,
2011-09-12, 03:05:04,VALID,1007.303,VALID,0.0,VALID,104.0,VALID,0.106,VALID,24.279,VALID,24.0,VALID,0.0,
2011-09-12, 03:06:04,VALID,1007.292,VALID,0.0,VALID,104.0,VALID,0.0,VALID,24.279,VALID,24.0,VALID,0.0,
2011-09-12, 03:07:04,VALID,1007.3,VALID,0.0,VALID,104.0,VALID,0.0,VALID,24.257,VALID,24.0,VALID,0.005,
2011-09-12, 03:08:04,VALID,1007.305,VALID,0.0,VALID,104.0,VALID,0.106,VALID,24.279,VALID,24.0,VALID,0.295,
2011-09-12, 03:09:04,VALID,1007.301,VALID,0.0,VALID,104.0,VALID,0.106,VALID,24.257,VALID,24.0,VALID,0.239,
2011-09-12, 03:10:04,VALID,1007.315,VALID,0.0,VALID,104.0,VALID,0.106,VALID,24.279,VALID,24.0,VALID,0.219,
2011-09-12, 03:11:04,VALID,1007.327,VALID,0.0,VALID,104.0,VALID,0.106,VALID,24.257,VALID,24.0,VALID,0.114,
2011-09-12, 03:12:04,VALID,1007.341,VALID,0.0,VALID,104.0,VALID,0.106,VALID,24.259,VALID,24.0,VALID,0.0,
2011-09-12, 03:13:04,VALID,1007.348,VALID,0.0,VALID,104.0,VALID,0.106,VALID,24.238,VALID,24.0,VALID,0.0,
2011-09-12, 03:14:04,VALID,1007.346,VALID,0.0,VALID,104.0,VALID,0.0,VALID,24.24,VALID,24.0,VALID,0.0,
2011-09-12, 03:15:04,VALID,1007.378,VALID,0.0,VALID,104.0,VALID,0.106,VALID,24.218,VALID,24.0,VALID,0.0,
2011-09-12, 03:16:04,VALID,1007.383,VALID,0.0,VALID,104.0,VALID,0.106,VALID,24.24,VALID,24.0,VALID,0.0,
2011-09-12, 03:17:04,VALID,1007.418,VALID,0.0,VALID,104.0,VALID,0.106,VALID,24.22,VALID,24.0,VALID,0.0,
2011-09-12, 03:18:04,VALID,1007.425,VALID,0.0,VALID,104.0,VALID,0.106,VALID,24.22,VALID,24.0,VALID,0.0,
2011-09-12, 03:19:04,VALID,1007.423,VALID,0.0,VALID,104.0,VALID,0.106,VALID,24.201,VALID,24.0,VALID,0.0,
2011-09-12, 03:20:04,VALID,1007.431,VALID,0.0,VALID,104.0,VALID,0.106,VALID,24.181,VALID,24.0,VALID,0.133,
2011-09-12, 03:21:04,VALID,1007.403,VALID,0.0,VALID,104.0,VALID,0.106,VALID,24.181,VALID,24.0,VALID,0.0,
2011-09-12, 03:22:04,VALID,1007.396,VALID,0.0,VALID,104.0,VALID,0.106,VALID,24.14,VALID,24.0,VALID,0.0,
2011-09-12, 03:23:04,VALID,1007.337,VALID,0.0,VALID,104.0,VALID,0.106,VALID,24.14,VALID,24.0,VALID,0.0,
2011-09-12, 03:24:04,VALID,1007.317,VALID,0.0,VALID,104.0,VALID,0.106,VALID,24.121,VALID,24.0,VALID,0.146,
2011-09-12, 03:25:04,VALID,1007.28,VALID,0.0,VALID,104.0,VALID,0.106,VALID,24.14,VALID,24.0,VALID,0.2,
2011-09-12, 03:26:04,VALID,1007.244,VALID,0.0,VALID,104.0,VALID,0.0,VALID,24.142,VALID,24.0,VALID,0.23,
2011-09-12, 03:27:04,VALID,1007.252,VALID,0.0,VALID,104.0,VALID,0.106,VALID,24.142,VALID,24.0,VALID,0.269,
2011-09-12, 03:28:04,VALID,1007.216,VALID,0.0,VALID,104.0,VALID,0.106,VALID,24.121,VALID,24.0,VALID,0.068,
2011-09-12, 03:29:04,VALID,1007.197,VALID,0.0,VALID,104.0,VALID,0.0,VALID,24.142,VALID,24.0,VALID,0.048,
2011-09-12, 03:30:04,VALID,1007.188,VALID,0.0,VALID,104.0,VALID,0.106,VALID,24.142,VALID,24.0,VALID,0.0,
2011-09-12, 03:31:04,VALID,1007.22,VALID,0.0,VALID,104.0,VALID,0.106,VALID,24.103,VALID,24.0,VALID,0.0,
2011-09-12, 03:32:04,VALID,1007.236,VALID,0.0,VALID,104.0,VALID,0.106,VALID,24.101,VALID,24.0,VALID,0.019,
2011-09-12, 03:33:04,VALID,1007.232,VALID,0.0,VALID,104.0,VALID,0.106,VALID,24.103,VALID,24.0,VALID,0.046,
2011-09-12, 03:34:04,VALID,1007.227,VALID,0.0,VALID,104.0,VALID,0.0,VALID,24.062,VALID,24.0,VALID,0.0,
2011-09-12, 03:35:04,VALID,1007.22,VALID,0.0,VALID,104.0,VALID,0.0,VALID,24.062,VALID,24.0,VALID,0.0,
2011-09-12, 03:36:04,VALID,1007.225,VALID,0.0,VALID,104.0,VALID,0.0,VALID,24.084,VALID,24.0,VALID,0.0,
2011-09-12, 03:37:04,VALID,1007.212,VALID,0.0,VALID,104.0,VALID,0.0,VALID,24.084,VALID,24.0,VALID,0.0,
2011-09-12, 03:38:04,VALID,1007.256,VALID,0.0,VALID,104.0,VALID,0.0,VALID,24.064,VALID,24.0,VALID,0.197,
2011-09-12, 03:39:04,VALID,1007.265,VALID,0.0,VALID,104.0,VALID,0.106,VALID,24.064,VALID,24.0,VALID,0.356,
2011-09-12, 03:40:04,VALID,1007.271,VALID,0.0,VALID,104.0,VALID,0.0,VALID,24.045,VALID,24.0,VALID,0.439,
2011-09-12, 03:41:04,VALID,1007.311,VALID,0.0,VALID,104.0,VALID,0.0,VALID,24.045,VALID,24.0,VALID,0.507,